Flag for U.S.A. Weather past 2 weeks in Fremont, California, U.S.A.

Now
64 °F

Passing clouds.


Feels Like: 64 °F
Forecast: 60 / 78 °F
Wind: 7 mph from Northeast

Location: Moffett Field

Current Time: Sep 2, 2014 at 10:40:11 PM

Latest Report: Sep 2, 2014 at 9:56 PM


Visibility: 10 mi

Pressure: 29.81 "Hg

Humidity: 81%

Dew point: 58 °F

Location of FremontLocation

Historic Weather in Fremont — Graph

°F

Fremont temperature yesterday

Maximum temperature yesterday: 84 °F (at 3:56 PM)
Minimum temperature yesterday: 61 °F (at 5:56 AM)
Average temperature yesterday: 71 °F

Past Weeks' High & Low Weather Summary

 TemperatureHumidityPressure
High84 °F (Sep 1, 3:56 PM)90% (Aug 28, 2:56 AM)30.09 "Hg (Aug 28, 2:56 AM)
Low59 °F (Aug 26, 5:56 AM)35% (Sep 1, 3:56 PM)29.76 "Hg (Sep 1, 5:56 PM)
Average68 °F70%29.92 "Hg
* Reported Aug 18 8:56 PM — Sep 2 8:56 PM, Fremont, Weather by CustomWeather, © 2014

Note: Actual official high and low records may vary slightly from our data, if they occured in-between our weather recording intervals... More about our weather records

Advertising

Fremont weather history for previous 24 hours

 ConditionsComfort  
Time TempWeatherWind HumidityBarometerVisibility
8:56 PM
Sep 2
64 °FClear.7 mph81%29.81 "Hg10 mi
7:56 PM65 °FSunny.12 mph81%29.79 "Hg10 mi
6:56 PM68 °FSunny.16 mph76%29.78 "Hg10 mi
5:56 PM71 °FSunny.18 mph68%29.79 "Hg10 mi
4:56 PM73 °FSunny.16 mph64%29.80 "Hg10 mi
3:56 PM73 °FSunny.15 mph64%29.80 "Hg10 mi
2:56 PM74 °FSunny.16 mph62%29.82 "Hg10 mi
1:56 PM74 °FSunny.14 mph60%29.83 "Hg10 mi
12:56 PM73 °FSunny.12 mph62%29.85 "Hg10 mi
11:56 AM73 °FSunny.8 mph62%29.86 "Hg10 mi
10:56 AM71 °FSunny.7 mph66%29.86 "Hg10 mi
9:56 AM68 °FSunny.3 mph70%29.86 "Hg10 mi
8:56 AM66 °FPartly sunny.6 mph75%29.86 "Hg10 mi
7:56 AM64 °FOvercast.No wind81%29.85 "Hg10 mi
6:56 AM62 °FPassing clouds.No wind86%29.85 "Hg10 mi
5:56 AM62 °FPassing clouds.No wind83%29.83 "Hg10 mi
4:56 AM63 °FClear.No wind84%29.81 "Hg10 mi
3:56 AM63 °FClear.No wind84%29.81 "Hg10 mi
2:56 AM64 °FClear.3 mph84%29.80 "Hg10 mi
1:56 AM65 °FClear.No wind81%29.80 "Hg10 mi
12:56 AM66 °FClear.6 mph81%29.81 "Hg10 mi
11:56 PM
Sep 1
66 °FClear.3 mph81%29.81 "Hg10 mi
10:56 PM68 °FClear.3 mph76%29.81 "Hg10 mi
Weather by CustomWeather, © 2014

See weather overviewHow to use our weather pages